Helicity
84 152 125 104 96 63 59 81 75 70 81 64 53 73 63 16 3 2 26 -6 -10 5 -24 22 75 84 56 160 185 204 241 267 368 383 359 308 287 247 222 221 233 236 202 203
101 102 107 75 74 74 94 96 82 49 37 20 29 47 75 51 -18 -24 -71 14 -24 -40 -51 -6 44 39 60 98 152 190 267 314 388 417 395 378 351 278 275 238 218 223 231 225
54 132 86 51 43 55 66 58 63 99 68 76 83 160 116 121 109 121 124 87 52 -46 -45 -1 30 74 65 78 165 154 148 297 372 423 450 506 496 429 321 228 222 234 259 246
72 69 68 51 26 59 58 51 126 127 115 218 182 252 119 173 88 80 86 65 74 11 -33 2 46 91 54 -1 76 135 177 291 342 432 512 482 463 420 339 296 294 274 271 242
71 69 50 22 17 89 53 103 129 106 141 132 125 106 302 258 196 175 101 76 136 127 21 19 77 96 37 22 -41 110 149 234 310 390 423 458 396 437 451 367 293 289 258 217
46 10 26 -12 32 75 101 138 129 122 73 156 103 79 244 90 123 28 74 124 142 136 85 93 96 89 73 91 -43 95 84 159 300 357 378 376 428 469 412 314 301 281 275 250
40 50 32 6 64 72 153 185 135 133 100 172 115 83 128 54 138 15 192 236 242 151 116 90 93 52 141 167 -24 -70 146 180 214 295 340 336 335 373 363 315 293 289 306 262
93 110 51 52 76 129 139 93 104 165 135 145 32 86 127 -22 -34 16 62 90 -29 53 8 10 64 182 236 279 313 51 171 274 219 195 214 250 302 330 290 280 272 245 246 233
91 52 61 27 86 193 93 119 64 143 166 107 143 130 122 -52 -120 -73 -8 -9 -54 -18 30 35 165 345 446 544 558 211 187 346 316 316 290 310 269 264 264 258 238 221 223 226
57 83 36 52 67 76 87 43 34 78 94 123 193 69 27 -64 -77 -86 -9 118 121 87 117 248 343 516 708 789 674 535 536 487 409 312 250 249 240 254 263 275 251 244 229 209
64 95 77 78 132 182 76 80 61 120 170 196 168 201 -25 -104 -165 -134 -7 227 136 3 59 231 284 402 485 527 559 583 539 526 524 442 339 246 185 211 220 220 236 224 198 226
70 88 98 96 125 14 83 76 55 109 142 275 258 300 -46 -118 -146 -122 -89 -44 103 75 137 164 296 233 278 347 285 317 344 338 362 337 334 331 280 215 213 200 192 214 184 208
81 114 108 94 133 21 100 98 56 52 43 56 -24 46 -56 -72 -29 -126 -113 -128 4 133 267 347 384 304 146 263 262 240 266 278 278 279 298 335 325 231 173 175 188 197 197 200
103 123 156 167 148 119 119 89 86 26 -4 -19 -19 16 -7 -9 47 -65 -85 -17 15 132 311 284 380 430 423 266 367 320 330 294 248 228 243 276 317 338 249 137 158 144 156 184
128 106 129 88 85 78 76 43 -6 -4 11 -68 42 45 1 84 33 -46 -114 -82 -45 22 195 611 419 373 377 234 347 331 295 275 229 189 208 252 290 284 322 304 166 152 181 190
125 113 97 45 47 33 32 27 -22 -50 -13 -48 47 46 131 84 114 35 1 14 -47 4 74 230 459 433 274 225 230 239 204 199 173 173 171 191 225 243 301 266 238 147 153 104
114 108 118 59 41 34 63 -26 -4 -29 -8 -48 -44 60 174 176 198 187 69 55 4 -15 26 157 226 283 195 121 115 132 133 107 91 112 133 149 152 159 188 186 170 195 203 116
94 122 100 28 23 51 22 -40 5 -16 -42 14 7 117 111 55 172 167 123 49 29 -48 -78 11 23 26 27 40 32 47 64 54 67 83 85 103 132 146 163 167 194 144 177 260
56 75 79 49 26 13 51 9 -3 -13 -44 13 -4 25 87 21 -13 0 54 43 23 13 -11 -31 15 40 20 31 12 15 34 55 71 86 85 78 87 105 118 147 167 174 196 186
70 42 78 55 45 -9 9 46 3 -32 -39 -13 32 9 8 42 -1 26 37 22 19 45 38 30 40 26 16 54 54 45 46 46 65 78 83 81 76 80 99 118 126 138 139 166
135 100 87 62 54 29 25 61 2 -30 -13 -18 15 2 -24 -23 4 0 8 16 19 66 96 14 43 51 36 50 49 49 58 77 75 64 63 73 86 78 95 109 71 96 126 85
110 128 112 99 95 22 20 -2 -29 -3 -7 -3 -4 -1 -20 -12 5 17 18 46 60 52 39 -10 37 43 30 45 41 48 54 50 49 55 63 77 89 82 83 83 94 77 77 88
100 82 83 78 65 36 4 -8 -23 -11 -2 -3 0 -7 -4 -7 0 12 21 45 61 42 -5 15 13 20 45 64 55 60 64 46 48 57 64 78 82 100 101 94 106 92 95 89
98 87 90 88 54 56 34 3 -6 -18 -17 -4 4 10 3 0 -4 10 16 16 22 17 17 31 36 40 52 70 62 53 50 38 35 46 51 51 63 82 101 98 116 130 114 98
87 115 96 98 87 95 41 22 -3 -10 -16 -12 1 14 10 1 -3 -4 11 17 16 10 18 19 29 33 37 42 53 53 49 37 21 22 25 35 43 53 59 93 125 138 148 106
112 105 150 86 74 72 51 39 8 0 -6 -4 12 12 14 5 7 1 -1 6 3 20 18 20 27 37 46 40 46 56 53 37 34 26 17 23 26 32 34 17 57 196 194 201
Wind_Speed
44 45 54 56 56 61 72 84 100 98 94 103 103 108 119 122 120 122 129 126 123 117 113 110 106 95 88 83 73 68 64 64 60 58 51 47 36 33 31 30 25 24 23 21
46 42 49 52 64 73 79 91 99 100 90 101 111 125 129 127 127 120 123 124 119 119 114 108 107 96 94 91 85 74 70 68 67 63 56 55 47 46 41 38 31 25 25 24
44 45 51 63 75 81 76 82 94 94 115 116 109 114 121 127 117 120 123 123 129 126 119 112 111 107 100 96 87 80 71 72 70 67 60 58 49 47 45 38 32 27 26 27
42 48 63 70 67 80 93 76 84 98 103 107 101 123 120 116 116 116 113 117 121 118 111 108 107 107 99 101 83 79 76 66 70 66 63 59 54 49 48 42 38 32 28 29
48 58 68 60 66 87 79 78 87 99 89 95 87 78 90 108 116 106 111 108 103 103 99 103 104 103 95 94 78 80 76 69 62 60 61 59 56 54 53 46 40 37 33 31
52 46 46 56 68 68 71 88 98 81 66 79 72 72 106 114 89 92 93 86 87 87 89 95 95 93 89 80 83 66 68 69 62 62 60 59 57 54 51 46 43 41 39 35
49 46 52 58 85 65 78 88 87 81 77 77 80 89 84 99 74 69 62 63 67 74 82 81 85 93 89 79 78 69 58 55 54 56 57 57 58 53 49 43 41 38 39 38
55 61 52 71 67 69 76 63 70 82 83 81 94 66 79 62 67 58 47 55 53 48 52 60 66 61 70 58 60 58 47 46 52 50 52 51 49 48 47 43 39 39 36 37
55 53 51 60 67 58 56 62 56 57 55 58 59 82 45 64 62 67 59 53 40 36 37 40 37 37 43 42 42 46 42 41 40 47 51 48 46 46 45 44 43 41 38 37
46 61 48 67 58 50 46 51 62 50 63 71 65 75 58 56 53 57 57 47 31 32 28 28 21 21 20 24 27 33 35 31 30 32 41 43 43 42 45 46 44 40 38 36
46 45 58 64 59 59 49 53 49 46 42 57 88 66 52 51 50 49 52 59 42 39 31 30 18 9 8 12 18 22 26 27 26 30 34 40 48 49 50 48 46 42 41 37
41 45 60 67 48 39 32 53 52 52 56 39 29 61 39 54 52 54 46 49 46 37 35 33 13 4 8 10 16 17 23 26 31 33 33 38 45 49 52 52 46 41 38 35
40 46 66 61 43 45 42 47 62 65 28 56 60 51 67 55 54 53 49 56 41 41 31 28 13 16 15 20 23 21 25 28 31 34 35 38 43 43 46 44 41 37 35 33
36 40 42 48 41 42 42 38 62 62 65 73 60 60 49 54 55 49 46 50 46 42 30 21 18 18 16 21 26 23 27 31 33 34 37 38 43 45 46 42 39 35 32 32
39 43 38 39 34 35 28 45 58 59 62 67 64 54 51 60 49 42 35 34 44 38 34 32 25 21 22 24 32 29 29 30 33 33 35 40 43 42 44 44 49 40 37 33
40 41 45 47 36 29 30 47 54 55 58 60 50 43 59 44 42 44 47 51 55 43 39 33 29 29 26 31 32 32 31 33 35 36 38 40 40 39 40 39 42 46 32 31
36 38 48 45 40 39 20 50 54 56 55 58 48 55 49 39 43 49 48 48 49 46 38 38 36 32 32 32 38 39 38 37 37 39 40 41 42 41 42 42 42 40 53 39
31 36 39 38 41 31 27 45 52 55 44 52 53 55 45 42 42 49 53 49 44 43 40 36 36 33 30 35 39 39 40 39 39 40 41 42 42 42 43 44 46 48 49 48
15 32 39 35 34 24 34 43 55 50 48 53 53 54 54 47 45 47 54 54 48 50 51 44 41 41 40 40 41 41 42 39 40 41 42 43 43 44 45 46 49 51 55 55
27 25 30 34 32 24 31 54 58 48 52 58 56 55 54 51 47 55 60 56 56 53 48 47 46 43 47 46 45 44 42 42 43 44 45 45 44 44 46 48 50 51 51 50
36 32 33 32 29 25 45 61 51 46 51 61 55 55 54 51 48 54 55 54 54 54 53 54 52 49 46 44 42 41 42 44 46 46 46 45 45 45 46 48 49 50 50 45
32 35 33 32 31 26 49 47 46 51 55 55 55 54 53 53 53 53 53 52 53 51 52 53 50 49 50 47 41 42 44 45 45 45 45 45 45 45 46 47 48 48 47 44
32 29 32 25 26 45 44 45 48 51 53 52 52 52 52 53 54 52 52 47 48 47 47 48 47 47 48 48 45 44 44 45 44 42 43 43 44 45 45 46 47 47 47 44
31 29 29 34 36 41 44 48 50 51 50 50 50 49 48 49 51 49 47 43 43 44 43 43 43 43 44 44 44 46 47 47 45 44 44 44 44 45 45 45 44 45 45 44
33 31 32 36 44 36 43 48 52 51 50 49 47 46 45 45 46 47 46 46 46 42 40 42 42 42 42 45 44 46 46 45 43 43 43 44 44 44 44 45 44 41 43 42
33 34 32 36 31 35 40 42 48 51 54 49 46 47 46 44 45 45 46 46 46 44 43 43 43 43 45 45 44 45 45 44 43 43 43 43 42 43 43 42 43 46 43 43
Wind_Direction
326 327 323 325 328 324 319 315 312 313 316 312 310 304 301 297 294 290 285 282 279 278 276 274 272 269 265 262 260 254 250 249 246 245 244 247 243 242 249 253 248 237 230 215
326 324 330 331 327 324 322 318 316 315 320 316 312 306 302 300 295 291 285 281 277 274 274 273 271 270 264 261 260 257 251 246 243 244 242 249 249 253 253 257 257 245 231 224
324 327 331 329 325 324 326 323 321 319 318 313 313 308 310 306 303 293 285 279 273 268 269 270 268 266 264 261 260 258 256 246 241 242 244 251 252 254 253 252 252 247 236 232
327 328 327 328 331 332 325 329 325 323 322 319 320 311 315 315 310 299 291 281 271 264 264 267 266 262 260 258 262 261 258 249 241 236 238 238 236 238 246 246 254 253 246 240
324 324 327 334 336 335 330 332 329 324 318 321 323 321 326 324 314 308 292 282 268 261 259 262 260 259 259 256 263 263 260 249 238 228 233 235 239 243 249 248 251 254 254 249
330 337 345 341 340 340 339 336 331 333 335 331 335 334 332 329 328 286 284 273 256 254 256 259 257 259 256 256 252 260 257 249 237 231 233 235 240 241 241 244 250 256 259 257
333 339 346 347 338 345 343 341 337 338 336 333 338 333 342 335 300 289 273 258 251 257 260 261 260 254 250 247 246 253 258 248 237 234 235 237 238 237 236 240 249 254 257 259
330 330 344 344 346 341 343 350 343 335 335 333 328 345 342 302 322 321 302 270 276 283 275 271 268 262 243 245 244 247 251 248 238 237 235 234 236 241 244 248 254 260 259 257
332 334 344 348 347 347 347 347 347 337 336 340 344 333 281 307 321 334 327 312 279 286 287 289 271 257 241 239 242 241 248 248 242 239 242 242 241 242 247 254 259 264 265 260
341 333 349 345 352 357 353 354 348 350 344 343 344 298 293 309 316 325 333 332 291 293 294 280 272 249 241 237 239 237 252 251 247 247 247 244 248 254 257 258 260 264 265 262
345 344 343 349 350 349 358 359 359 349 351 344 322 290 293 302 309 312 320 317 298 290 287 272 260 270 268 255 253 253 261 262 269 267 261 258 258 260 261 261 263 264 264 262
349 347 341 343 349 3 9 354 353 351 348 341 281 265 289 310 308 307 315 330 336 324 297 259 262 328 348 300 287 284 280 280 280 280 277 276 273 269 267 266 265 264 263 261
351 347 339 348 355 2 355 353 327 297 6 348 294 266 300 307 307 311 310 325 322 326 313 294 305 301 326 313 297 309 303 293 291 290 289 284 279 278 273 271 268 265 264 257
353 346 342 339 337 344 344 348 293 309 338 307 303 279 287 303 309 318 321 334 331 340 336 341 346 343 351 321 316 316 310 309 302 302 295 289 284 282 277 275 274 270 267 261
349 343 346 342 337 337 338 330 287 317 342 327 296 275 284 296 295 326 326 337 344 344 332 327 340 348 360 337 343 335 330 320 311 309 302 293 289 289 285 279 274 271 265 261
346 345 348 341 347 350 347 306 293 306 331 313 303 287 307 318 326 326 338 351 356 339 334 325 339 347 351 338 334 334 329 323 316 316 311 304 300 297 291 288 281 276 263 260
346 348 348 341 351 350 6 299 296 292 322 321 310 302 303 320 336 340 343 343 350 346 337 339 342 342 333 326 339 338 335 322 322 323 317 312 307 302 296 290 284 281 276 280
350 351 354 348 354 351 344 306 306 298 307 322 320 324 315 319 331 340 345 340 335 337 341 335 341 340 327 330 336 333 333 326 321 321 320 314 306 304 300 295 288 286 285 281
11 359 353 356 353 355 321 306 306 299 285 320 316 325 331 320 331 336 342 347 332 336 340 334 330 327 324 327 329 329 329 319 317 314 313 311 309 306 303 297 293 290 285 282
9 2 352 353 350 347 317 301 308 300 276 321 316 320 327 328 319 322 335 337 335 335 323 323 328 325 335 330 323 327 321 317 316 312 310 311 312 310 308 302 297 296 294 290
348 353 351 348 345 337 294 301 304 286 285 308 310 317 328 334 341 340 340 340 337 336 332 337 338 331 327 322 321 317 316 318 316 316 318 319 319 315 313 312 310 305 302 301
346 344 345 349 347 336 302 307 297 299 298 300 305 313 323 333 342 345 342 335 329 334 335 338 341 344 342 333 315 318 321 317 318 320 321 323 321 322 322 321 320 321 316 309
338 345 341 344 341 312 306 308 305 302 299 299 305 314 323 327 335 342 337 320 322 321 323 331 338 341 340 335 328 322 317 322 322 320 322 322 327 327 324 324 327 328 329 322
337 340 336 336 328 311 307 299 300 302 299 306 305 312 318 323 332 334 327 314 313 317 313 316 321 327 324 323 324 330 330 334 337 332 334 333 332 334 336 334 335 336 335 332
325 329 326 321 317 319 308 295 295 299 300 302 309 307 313 319 323 330 329 322 323 317 309 319 322 320 321 327 326 331 332 335 336 337 335 336 340 341 345 348 346 344 346 343
322 316 313 311 319 312 309 303 297 296 297 297 306 307 313 314 323 330 335 330 326 318 319 322 323 322 328 330 329 329 331 331 336 338 339 340 341 344 351 354 1 5 3 3